Location: Darmstadt
(49.8706°N, 8.6494°E)
Time: 07:28:03
(UTC+01:00)

Cosmos 2278 Rocket - Pass Details

Date: 31 October 2020
Orbit: 840 x 847 km, 71.0° (Epoch: 03 December)

Event Time Altitude Azimuth Distance (km) Brightness Sun altitude
Rises 20:33:51 0° 333° (NNW) 3,413 5.9 -34.0°
Reaches altitude 10° 20:36:52 10° 348° (NNW) 2,476 4.9 -34.5°
Enters shadow 20:38:18 16° 0° (N) 2,108 4.4 -34.7°
